Location: St. Louis
(38.6270°N, 90.1994°W)
Time: 04:19:33
(UTC-05:00)

RS-15 - Pass Details

Date: 03 February 2022
Orbit: 1881 x 2163 km, 64.8° (Epoch: 20 May)

Event Time Altitude Azimuth Distance (km) Brightness Sun altitude
Rises 20:35:17 0° 295° (WNW) 5,560 11.3 -37.3°
Reaches altitude 10° 20:40:28 10° 313° (NW) 4,604 10.5 -38.3°
Maximum altitude 20:48:21 19° 355° (N) 3,966 9.7 -39.9°
Enters shadow 20:54:11 14° 27° (NNE) 4,372 9.7 -41.0°
